AirNav   BOSE ProFlight Aviation Headset
 
 1109 users online  

KBEC Beech Factory Airport
Wichita, Kansas, USA

GOING TO WICHITA?


FAA INFORMATION EFFECTIVE 19 JULY 2018

Location

FAA Identifier: BEC
Lat/Long: 37-41-38.1000N / 097-12-53.7000W
37-41.635000N / 097-12.895000W
37.6939167 / -97.2149167
(estimated)
Elevation: 1408.6 ft. / 429.3 m (surveyed)
Variation: 04E (2015)
From city: 5 miles E of WICHITA, KS
Time zone: UTC -5 (UTC -6 during Standard Time)
Zip code: 67206

Airport Operations

Airport use: Open to the public
Activation date: 04/1940
Control tower: yes
ARTCC: KANSAS CITY CENTER
FSS: WICHITA FLIGHT SERVICE STATION
NOTAMs facility: ICT (NOTAM-D service available)
Attendance: MON-FRI 0700-1730
Wind indicator: lighted
Segmented circle: yes
Lights: WHEN ATCT CLSD ACTVT MIRL RY 01/19; REIL RYS 01 & 19 - 126.8.
Beacon: white-green (lighted land airport)
Operates sunset to sunrise.

Airport Communications

CTAF: 126.8
UNICOM: 122.95
WX AWOS-3PT: 119.45 (316-515-7116)
BEECH GROUND: 121.7 [0700-1730 MON-FRI]
BEECH TOWER: 126.8 313.6 [0700-1730 MON-FRI]
WICHITA APPROACH: 134.8
WICHITA DEPARTURE: 134.8
CLEARANCE DELIVERY: 125.0
(WHEN BEECH FACTORY ATCT CLSD): 125.0
EMERG: 121.5
WX ASOS at AAO (3 nm N): 134.025 (316-636-2541)
WX AWOS-3PT at 3AU (7 nm E): 124.175 (316-733-6696)
WX AWOS-3 at 1K1 (7 nm NE): 118.3 (316-530-6004)
WX ASOS at ICT (11 nm W): PHONE 316-945-8022
WX AWOS-3P at EQA (19 nm E): 120.875 (316-322-8095)
  • OTHER TIMES BY NOTAM; CHECK WITH FLT SVS OR WICHITA APCH CTL ON FREQ 134.8.

Nearby radio navigation aids

VOR radial/distance  VOR name  Freq  Var
ICTr093/17.8WICHITA VORTAC113.8007E
HUTr114/38.6HUTCHINSON VOR/DME116.8004E

 
NDB name  Hdg/Dist  Freq  Var  ID
PICHE055/13.433204EIC .. -.-.
NEWTON167/22.428106EEWK . .-- -.-

Airport Services

Parking: tiedowns
Airframe service: NONE
Powerplant service: NONE
Bottled oxygen: NONE

Runway Information

Runway 1/19

Dimensions: 8001 x 100 ft. / 2439 x 30 m
Surface: concrete, in good condition
Weight bearing capacity: 
Double wheel: 75.0
Runway edge lights: medium intensity
RUNWAY 1  RUNWAY 19
Latitude: 37-40.989148N37-42.280905N
Longitude: 097-13.061048W097-12.730177W
Elevation: 1371.2 ft.1408.6 ft.
Traffic pattern: rightleft
Runway heading: 007 magnetic, 011 true187 magnetic, 191 true
Markings: nonprecision, in good conditionnonprecision, in good condition
Visual slope indicator: 4-light PAPI on left (3.00 degrees glide path)4-light PAPI on left (3.00 degrees glide path)
Runway end identifier lights: yesyes
Touchdown point: yes, no lightsyes, no lights

Airport Ownership and Management from official FAA records

Ownership: Privately-owned
Owner: BEECHCRAFT AIRCRAFT COMPANY
10511 E. CENTRAL
WICHITA, KS 67201
Phone (316) 515-5300
Manager: TODD BAYLESS
10511 E. CENTRAL
WICHITA, KS 67201
Phone (316) 515-8365

Airport Operational Statistics

Aircraft based on the field: 77
Single engine airplanes: 21
Multi engine airplanes: 29
Jet airplanes: 10
Military aircraft: 17
    
Aircraft operations: avg 90/day *
81% local general aviation
14% military
5% transient general aviation
* for 12-month period ending 15 August 2016

Additional Remarks

ARR & DEP ACFT MAINTAIN 2200 FT MSL WITHIN 5 MILES OF FIELD DUE TO AFB TRAFFIC.
PRKG UNAVBL EXC 4 HRS PPR CALL 316-515-7140.
EXTENSIVE TRAINING ACTIVITIES
ARRS FROM THE W CROSS MIDFIELD ENTER DNWND.
DEER, COYOTE & MIGRATORY WATER FOWL ON & INVOF ARPT.
PPR FOR PARKING OR TAXIING WEST SIDE OF RY.
BE ALERT COL JAMES JABARA ARPT 3 MILES NORTH 1/2 MILE WEST OF ARPT.

Instrument Procedures

NOTE: All procedures below are presented as PDF files. If you need a reader for these files, you should download the free Adobe Reader.

NOT FOR NAVIGATION. Please procure official charts for flight.
FAA instrument procedures published for use from 19 July 2018 at 0901Z to 16 August 2018 at 0900Z.

 
IAPs - Instrument Approach Procedures
RNAV (GPS) RWY 01   download (253KB)
RNAV (GPS) RWY 19   download (251KB)
VOR-B   download (191KB)
NOTE: Special Take-Off Minimums/Departure Procedures apply   download (147KB)

Other nearby airports with instrument procedures:

KCEA - Cessna Aircraft Field Airport (3 nm SW)
KAAO - Colonel James Jabara Airport (3 nm N)
KIAB - Mc Connell Air Force Base (5 nm SW)
3AU - Augusta Municipal Airport (7 nm E)
1K1 - Lloyd Stearman Field Airport (7 nm NE)
KICT - Wichita Dwight D Eisenhower National Airport (11 nm W)
KEQA - El Dorado/Captain Jack Thomas Memorial Airport (19 nm E)
 
Loc | Ops | Rwys | IFR | FBO | Links
Com | Nav | Svcs | Stats | Notes

Kansas City Aviation Department
 
Area around KBEC (Beech Factory Airport)
 
Road maps at: MapQuest Bing Google
 
Aerial photo
WARNING: Photo may not be current or correct
Aerial photo of KBEC (Beech Factory Airport)
Photo by Eve Cascella
Photo taken 03-Oct-2009

Do you have a better or more recent aerial photo of Beech Factory Airport that you would like to share? If so, please send us your photo.

 
Sectional chart

 
Airport distance calculator
Flying to Beech Factory Airport? Find the distance to fly.

From to KBEC

Sunrise and sunset
Times for 19-Jul-2018
 Local
(UTC-5)
 Zulu
(UTC)
Morning civil twilight05:5310:53
Sunrise06:2311:23
Sunset20:4701:47
Evening civil twilight21:1702:17

Current date and time
Zulu (UTC)  19-Jul-2018 23:26:18
Local (UTC-5)  19-Jul-2018 18:26:18
 
METAR
KBEC 192315Z AUTO 16003KT 10SM CLR 37/21 A2980 RMK AO2 T03670210
KAAO 
3nm N 
192254Z AUTO 04009KT 10SM CLR 36/23 A2980 RMK AO2 SLP074 T03610228
KIAB 
5nm SW 
192256Z AUTO 21007KT 10SM CLR 37/23 A2980 RMK AO2 SLP076 T03660230
K3AU 
7nm E 
192315Z AUTO 15007KT 10SM CLR 36/22 A2980 RMK AO2
K1K1 
7nm NE 
192315Z AUTO 04006KT 10SM CLR 34/22 A2981 RMK AO2 T03440221
KICT 
11nm W 
192253Z 15008KT 10SM FEW120 FEW150 SCT220 37/22 A2979 RMK AO2 SLP070 T03720222
KEQA 
19nm E 
192315Z AUTO 09011G18KT 10SM CLR A2982 RMK AO2
TAF
KIAB 
5nm SW 
191800Z 1918/2024 19009KT 9999 SKC QNH2981INS BECMG 1920/1921 17009KT 9999 FEW070 QNH2977INS BECMG 2011/2012 10009KT 9999 FEW130 QNH2978INS TX39/1921Z TN23/2011Z
KICT 
11nm W 
191728Z 1918/2018 18006KT P6SM SKC FM200000 15007KT P6SM SCT250 FM200200 12007KT P6SM SCT250 FM201100 09006KT P6SM FEW250
NOTAMs
Click for the latest NOTAMs
NOTAMs are issued by the DoD/FAA and will open in a separate window not controlled by AirNav.

 

 
 

Would you like to see your business listed on this page?

 If your business provides an interesting product or service to pilots, flight crews, aircraft, or users of the Beech Factory Airport, you should consider listing it here.  To start the listing process, click on the button below
 
Add a business
 

Other Pages about Beech Factory Airport

www.hawkerbeechcraft.com
 
Update a link
 
Copyright © AirNav, LLC. All rights reserved. Privacy Policy  Contact